Regional Weather Roundup
Issued by NWS

Home | Current Version | Previous Version | Graphics & Text | Print | Product List | Glossary On
Versions: 1 2 3 4 5 6 7 8 9 10 11 12 13 14 15 16 17 18 19 20 21 22 23 24 25 26 27 28 29 30 31 32 33 34 35 36 37 38 39 40 41 42 43 44 45 46 47 48 49 50
000
ASUS43 KMPX 251101
RWRMN
WEATHER ROUNDUP FOR MINNESOTA
NATIONAL WEATHER SERVICE TWIN CITIES/CHANHASSEN MN
600 AM CDT THU AUG 25 2016


NOTE: "FAIR" INDICATES FEW OR NO CLOUDS BELOW 12,000 FEET WITH NO
SIGNIFICANT WEATHER AND/OR OBSTRUCTIONS TO VISIBILITY. N/A MEANS
CURRENT SKY AND/OR WEATHER CONDITIONS ARE NOT AVAILABLE.

MNZ060>063-068>070-251200-
   Twin Cities Metro

CITY           SKY/WX    TMP DP  RH WIND       PRES   REMARKS
TWIN CITIES    PTCLDY    62  58  86 SW3       30.02S
ST PAUL        CLEAR     62  58  86 CALM      30.02S
CRYSTAL        CLEAR     62  55  77 SW3       30.00S
BLAINE         CLEAR     61  59  94 S6        30.01S
LAKEVILLE      CLEAR     59  59 100 CALM      30.04S
EDEN PRAIRIE   CLEAR     60  57  89 S6        30.02S
LAKEVILLE      CLEAR     59  59 100 CALM      30.04S
SOUTH ST PAUL  CLEAR     62  58  87 SW6       30.02S
LAKE ELMO      FAIR      59  57  94 CALM      30.03S
$$
MNZ001>005-007-008-013>017-022>024-027-028-251200-
   Northwest Minnesota

CITY           SKY/WX    TMP DP  RH WIND       PRES   REMARKS
BEMIDJI        PTCLDY    53  51  90 SW8       29.94R
HALLOCK        MOCLDY    57  55  94 W8        29.86S
ROSEAU         MOCLDY    57  54  88 SW9       29.86R
WARROAD        CLOUDY    55  52  88 SW6       29.86R
THIEF RVR FALL CLOUDY    55  53  93 SW10      29.91S
CROOKSTON      CLOUDY    55  54  94 W10       29.93R
FOSSTON        CLOUDY    52  52 100 SW8       29.95R
DETROIT LAKES  CLEAR     55  52  88 W12       30.00S
MOORHEAD       CLEAR     54  52  94 SW9       30.00R
PARK RAPIDS    PTCLDY    54  50  86 W6        29.98R
MAHNOMEN       CLOUDY    52  50  95 SW9       29.96S
$$
MNZ006-009>011-018-025>026-251200-
   North Central Minnesota

CITY           SKY/WX    TMP DP  RH WIND       PRES   REMARKS
BAUDETTE       CLEAR     52  50  93 SW6       29.86R
FLAG ISLAND    PTCLDY    55  54  94 SW6       29.81S FOG
INTL FALLS     CLEAR     52  50  93 SW5       29.87S
WASKISH        CLOUDY    61  55  82 SW17      29.89R
BIG FORK       CLEAR     52  48  87 S6        29.91S
LONGVILLE      CLEAR     57  52  82 SW7       29.95S
GRAND RAPIDS   CLEAR     57  53  86 SW6       29.96S
CRANE LAKE     CLEAR     52  52 100 S3        29.91R
ORR            CLEAR     54  48  82 CALM      29.88S
COOK           CLEAR     55  52  88 SW5       29.91F
WALKER         FAIR      54  50  88 SW7       29.95S
$$
MNZ012-019>021-037-251200-
   Northeast Minnesota

CITY           SKY/WX    TMP DP  RH WIND       PRES   REMARKS
DULUTH         CLEAR     56  53  90 W9        29.95S
ELY            CLEAR     54  52  94 SW5       29.91S
HIBBING        CLEAR     48  48 100 SW3       29.93S
EVELETH        CLEAR     53  51  95 SW6       29.94S
DULUTH HARBOR  CLEAR     59  55  88 SW9       29.94S
TWO HARBORS    CLEAR     59  54  82 W7        29.92S
SILVER BAY     CLEAR     54  52  94 CALM      29.91S
G MARAIS ARPRT CLEAR     54  48  82 W6        29.92S
$$
MNZ029>031-032-039>041-046>048-054>057-064-251200-
   West Central Minnesota

CITY           SKY/WX    TMP DP  RH WIND       PRES   REMARKS
FERGUS FALLS   CLEAR     52  52 100 W7        30.04S
WHEATON        CLEAR     55  52  88 W8        30.06S
MORRIS         CLEAR     55  52  88 W8        30.04S
ALEXANDRIA     CLEAR     57  51  80 W13       30.04R
ELBOW LAKE     FAIR      52  50  93 SW8       30.04R
WADENA         CLEAR     54  52  94 SW7       29.99S
GLENWOOD       CLEAR     55  52  88 W9        30.04S
APPLETON       CLEAR     55  52  88 W7        30.05S
BENSON         CLEAR     52  48  87 NW6       30.05S
ORTONVILLE     CLEAR     57  48  72 CALM      30.06S
MADISON        CLEAR     54  52  94 W5        30.07R
WILLMAR        FAIR      55  55 100 W6        30.06R
$$
MNZ033>034-036-042>043-049>051-058-059-251200-
   Central Minnesota

CITY           SKY/WX    TMP DP  RH WIND       PRES   REMARKS
ST CLOUD       CLEAR     54  54 100 S3        30.01S
SAUK CENTRE    FAIR      55  52  91 W8        30.03S
PAYNESVILLE    CLEAR     53  53 100 W7        30.04S
AITKIN           N/A     59  52  77 SW5       29.96S
PINE RIVER     CLEAR     54  52  94 CALM      30.00S
BRAINERD       CLEAR     54  53  97 S6        29.99R
STAPLES        CLEAR     54  50  87 SW8       29.99S
LONG PRAIRIE   FAIR      55  52  88 SW6       30.02S
LITTLE FALLS   CLEAR     55  54  94 W6        30.01R
LITCHFIELD     PTCLDY    59  57  94 W3        30.04R
BUFFALO        PTCLDY    59  56  89 CALM      30.02F
MAPLE LAKE     CLEAR     60  58  93 CALM      30.02S
HUTCHINSON     CLEAR     58  57  96 SW5       30.04S
$$
MNZ037-044-045-052-053-251200-
   East Central Minnesota

CITY           SKY/WX    TMP DP  RH WIND       PRES   REMARKS
PRINCETON      CLEAR     55  54  94 CALM      30.00S
MORA           CLEAR     55  54  94 SW3       30.01S
CAMBRIDGE      CLEAR     61  54  77 CALM      29.98F
RUSH CITY      PTCLDY    58  56  92 SW5       30.00S
MOOSE LAKE     FOG       50  48  93 CALM      29.96R VSB 3/4
HINCKLEY       FAIR      54  54 100 CALM      29.99S FOG
CLOQUET        CLEAR     57  52  82 SW7       29.96S
MCGREGOR       CLEAR     55  54  94 SW5       29.97S
$$
MNZ071>073-080-081-089-090-097-098-251200-
   Southwest Minnesota

CITY           SKY/WX    TMP DP  RH WIND       PRES   REMARKS
MONTEVIDEO     CLEAR     55  54  94 W5        30.08R
GRANITE FALLS  PTCLDY    56  55  94 W6        30.08R
CANBY          PTCLDY    57  52  83 SW5       30.09R
MARSHALL       CLOUDY    57  54  89 NW8       30.08R
REDWOOD FALLS  CLOUDY    59  54  83 W12       30.05R
OLIVIA         PTCLDY    54  52  94 W5        30.04S
PIPESTONE      CLOUDY    59  54  82 NW7       30.10R
WINDOM         CLOUDY    57  55  94 SW3       30.08R
WORTHINGTON    MOCLDY    59  54  83 SW6       30.10R
JACKSON        PTCLDY    59  54  82 W5        30.09S
TRACY          CLOUDY    60  56  85 W5        30.09R
SLAYTON        PTCLDY    59  54  82 W6        30.10R
$$
MNZ065>067-074>077-082>085-091>093-251200-
   South Central Minnesota

CITY           SKY/WX    TMP DP  RH WIND       PRES   REMARKS
MANKATO        PTCLDY    59  54  82 SW6       30.06R
NEW ULM          N/A     59  57  94 SW6       30.05R
ST JAMES       PTCLDY    54  52  94 SW3       30.08R
FAIRMONT       PTCLDY    58  55  90 NW3       30.08R
GLENCOE        MOCLDY    60  58  94 CALM      30.03S
FARIBAULT      CLEAR     61  57  88 SW5       30.06R
OWATONNA       CLOUDY    57  55  94 CALM      30.06S FOG
WASECA         CLEAR     55  55 100 CALM      30.07S
ALBERT LEA     CLOUDY    61  57  88 CALM      30.06F
$$
MNZ078>079-086>088-094>096-251200-
   Southeast Minnesota

CITY           SKY/WX    TMP DP  RH WIND       PRES   REMARKS
ROCHESTER      CLOUDY    61  59  93 W7        30.07R
RED WING       CLOUDY    61  59  94 CALM      30.02S
STANTON        CLEAR     61  57  88 S3        30.03S
DODGE CENTER   CLOUDY    61  59  94 W5        30.06S
WINONA         CLOUDY    61  59  94 CALM      30.04R
AUSTIN         CLOUDY    63  57  82 W5        30.06S
PRESTON        PTCLDY    60  57  91 NW3       30.06R
$$
ABBREVIATIONS USED IN REMARKS
   TC - TEMPERATURES IN CELSIUS
  WCI - WIND CHILL INDEX
   HX - HEAT INDEX
  VSB - VISIBILITY
$$



USA.gov is the U.S. government's official web portal to all federal, state and local government web resources and services.